SCP
0 0 0 0 0 0 0 0 0 0 0 0 0 0 0 0 0 0 0 0 0 0 0 0 0 0 0 0 -0 -0 0 0 0 0 0 0 0 0 0 0 0 0 0 0
0 0 0 0 0 0 0 0 0 0 0 0 0 0 0 0 0 0 0 0 0 0 0 0 0 0 0 0 -0 0 0 0 0 0 0 0 0 0 0 0 0 0 0 0
0 0 0 0 0 0 0 0 0 0 0 0 0 0 0 0 0 0 0 0 0 0 0 0 0 0 0 0 -0 0 0 0 0 0 0 0 0 0 0 0 0 0 0 0
0 0 0 0 0 0 0 0 0 0 0 0 0 0 0 0 0 0 0 0 0 0 0 0 0 -0 -0 0 0 0 0 0 0 0 0 0 0 0 0 0 0 0 0 0
0 0 0 0 0 0 0 0 0 0 0 0 0 0 0 0 0 0 0 0 0 0 0 0 0 0 0 0 0 0 0 0 0 0 0 0 0 0 0 0 0 0 0 0
0 0 0 0 0 0 0 0 0 0 0 0 0 0 0 0 0 0 0 0 0 0 0 0 0 0 0 0 0 0 0 0 0 0 0 0 0 0 0 0 0 0 0 0
0 0 0 0 0 0 0 0 0 0 0 0 0 0 0 0 0 0 0 0 0 0 0 0 0 0 0 0 0 0 0 0 0 0 0 0 0 0 0 0 0 0 0 -0
0 0 0 0 0 0 0 0 0 0 0 0 0 0 0 0 0 0 0 0 0 0 0 0 0 0 0 0 0 0 0 0 0 0 0 0 0 0 0 0 0 -0 -0 -0
0 0 0 0 0 0 0 0 0 0 0 0 0 0 0 0 0 0 0 0 0 0 0 0 0 0 0 0 0 0 0 0 0 0 0 0 0 0 0 0 0 0 0 0
0 0 0 0 0 0 0 0 0 0 0 0 0 0 0 0 0 0 0 0 0 0 0 0 0 0 0 0 0 0 0 0 0 0 0 0 0 0 0 0 0 0 0 0
0 0 0 0 0 0 0 0 0 0 0 0 0 0 0 0 0 0 0 0 0 0 0 0 0 0 0 0 0 0 0 0 0 0 0 0 0 0 0 0 0 0 0 0
0 0 0 0 0 0 0 0 0 0 0 0 0 0 0 0 0 0 0 0 0 0 0 0 0 0 0 0 0 0 0 0 0 0 0 0 0 0 0 0 0 0 0 0
0 0 0 0 0 0 0 0 0 0 0 0 0 0 0 0 0 0 0 0 0 0 0 0 0 0 0 0 0 0 0 0 0 0 0 0 0 0 0 0 0 0 0 0
0 0 0 0 0 0 0 0 0 0 0 0 0 0 0 0 0 0 0 0 0 0 0 0 0 0 0 0 0 0 0 0 0 0 0 0 0 0 0 0 0 0 0 0
0 0 0 0 0 0 0 0 0 0 0 0 0 0 0 0 0 0 0 0 0 0 0 0 0 0 0 0 0 0 0 0 0 0 0 0 0 0 0 0 0 0 0 0
0 0 0 0 0 0 0 0 0 0 0 0 0 0 0 0 0 0 0 0 0 0 0 0 0 0 0 0 0 0 0 0 0 0 0 0 0 0 0 0 0 0 0 0
0 0 0 0 0 0 0 0 0 0 0 0 0 0 0 0 0 0 0 0 0 0 0 0 0 0 0 0 0 0 0 0 0 0 0 0 0 0 0 0 0 0 0 0
0 0 0 0 0 0 0 0 0 0 0 0 0 0 0 0 0 0 0 0 0 0 0 0 0 0 0 0 0 0 0 0 0 0 0 0 0 0 0 0 0 0 0 0
0 0 0 0 0 0 0 0 0 0 0 0 0 0 0 0 0 0 0 0 0 0 0 0 0 0 0 0 0 0 0 0 0 0 0 0 0 0 0 0 0 0 0 0
0 0 0 0 0 0 0 0 0 0 0 0 0 0 0 0 0 0 0 0 0 0 0 0 0 0 0 0 0 0 0 0 0 0 0 0 0 0 0 0 0 0 0 0
0 0 0 0 0 0 0 0 0 0 0 0 0 0 0 0 0 0 0 0 0 0 0 0 0 0 0 0 0 0 0 0 0 0 0 0 0 0 0 0 0 0 0 0
0 0 0 0 0 0 0 0 0 0 0 0 0 0 0 0 0 0 0 0 0 0 0 0 0 0 0 0 0 0 0 0 0 0 0 0 0 0 0 0 0 0 0 0
0 0 0 0 0 0 0 0 0 0 0 0 0 0 0 0 0 0 0 0 0 0 0 0 0 0 0 0 0 0 0 0 0 0 0 0 0 0 0 0 0 0 0 0
0 0 0 0 0 0 0 0 0 0 0 0 0 0 0 0 0 0 0 0 0 0 0 0 0 0 0 0 0 0 0 0 0 0 0 0 0 0 0 0 0 0 0 0
0 0 0 0 0 0 0 0 0 0 0 0 0 0 0 0 0 0 0 0 0 0 0 0 0 0 0 0 0 0 0 0 0 0 0 0 0 0 0 0 0 0 0 0
0 0 0 0 0 0 0 0 0 0 0 0 0 0 0 0 0 0 0 0 0 0 0 0 0 0 0 0 0 0 0 0 0 0 0 0 0 0 0 0 0 0 0 0
Wind_Speed
6 9 6 4 2 2 3 3 3 3 3 11 14 13 7 5 10 11 11 11 12 11 10 12 14 14 16 16 16 16 17 17 14 11 12 12 12 10 9 7 9 11 12 13
6 7 3 1 3 2 3 4 3 3 2 11 13 11 5 4 4 4 6 8 9 12 13 14 16 16 18 18 16 16 15 13 12 11 13 11 10 10 10 9 10 11 13 13
8 2 4 3 6 7 2 2 3 3 6 9 12 6 2 1 0 2 4 4 6 9 10 12 14 15 18 19 18 15 15 14 13 14 12 11 11 10 9 11 11 13 13 12
6 3 4 6 5 4 2 1 2 4 6 3 5 2 3 2 3 5 7 8 8 8 9 11 14 15 17 17 16 15 15 13 14 15 14 16 13 13 13 12 12 13 13 12
2 4 5 4 3 3 4 2 0 3 4 3 2 2 3 2 5 6 7 8 9 8 8 11 12 13 15 14 14 16 16 14 14 14 14 13 12 12 12 12 13 12 12 12
2 1 2 1 2 2 5 2 2 3 3 1 2 3 2 1 2 6 7 8 10 9 9 11 10 11 13 13 15 16 16 16 14 15 15 14 14 13 13 14 12 11 10 10
5 3 4 3 4 6 8 7 5 6 4 3 1 0 2 3 4 5 7 8 8 8 8 10 10 13 13 13 16 16 17 17 14 15 15 14 14 13 13 12 11 12 10 10
3 3 4 4 2 2 4 5 4 3 5 6 2 1 2 4 4 5 7 8 8 8 7 9 9 13 14 13 15 16 16 16 15 15 15 14 13 11 11 12 12 11 10 11
3 2 2 2 2 2 2 4 2 1 4 5 3 2 1 2 7 8 9 8 7 8 8 8 9 13 14 13 14 16 16 16 15 14 14 13 12 11 12 14 13 10 11 12
1 1 2 3 3 7 6 4 4 5 6 8 6 2 1 5 8 9 9 9 7 7 8 8 8 11 13 12 12 14 15 15 15 13 12 11 12 12 13 13 13 13 14 15
2 1 2 3 4 2 3 3 5 2 2 2 8 5 3 2 6 9 11 8 7 8 10 7 8 10 11 11 11 14 14 14 14 14 13 13 13 13 13 13 14 15 15 15
2 3 1 1 1 1 3 3 3 2 2 2 2 6 2 2 7 8 9 7 6 8 9 6 6 9 10 11 10 12 12 12 13 13 13 13 13 14 14 14 15 15 15 15
1 2 2 3 1 1 3 2 2 3 2 3 3 5 1 4 7 10 8 6 6 7 10 6 6 8 9 10 9 10 10 11 12 12 12 12 13 14 14 15 15 16 16 16
3 2 2 3 3 2 2 0 2 3 2 3 5 7 8 10 13 14 8 4 7 7 10 9 9 8 9 10 10 10 10 10 11 12 12 12 13 14 14 14 15 15 16 16
3 2 1 2 1 2 2 2 2 3 3 4 5 7 8 7 11 10 6 6 10 9 11 10 10 10 10 10 11 11 11 10 11 12 12 12 13 13 13 14 15 14 14 15
2 1 0 2 2 4 3 2 2 2 2 5 6 6 4 8 6 8 7 10 11 11 11 11 11 11 11 11 12 12 11 11 11 12 12 13 13 13 13 14 15 14 14 15
2 2 1 3 5 4 4 4 4 2 4 4 4 5 5 8 10 9 6 7 8 10 11 11 11 10 9 9 11 11 12 12 11 12 12 13 13 14 14 13 14 14 14 14
3 3 2 3 5 4 1 1 2 3 7 5 4 6 7 7 7 4 4 6 8 8 8 9 8 10 8 8 9 10 11 10 11 11 12 12 13 13 14 13 13 13 12 11
3 4 2 2 2 6 1 2 2 2 6 3 4 6 7 5 7 1 4 5 6 4 5 6 6 7 8 8 9 10 10 10 11 11 12 12 12 13 13 13 13 13 12 11
4 4 3 2 2 7 2 2 2 2 4 4 3 5 5 5 9 5 3 5 5 5 6 6 6 7 7 8 9 9 10 11 11 12 13 12 12 12 11 12 12 12 12 12
1 1 2 3 4 8 3 4 3 1 3 2 2 2 1 1 3 5 5 4 5 5 6 7 7 7 7 8 8 9 10 10 12 12 12 12 12 11 10 11 10 11 11 11
6 5 4 4 4 6 6 5 4 4 2 0 0 1 1 2 3 4 5 6 6 7 8 7 7 8 8 7 8 10 11 12 12 12 12 12 12 11 9 9 10 10 10 9
5 5 6 8 8 4 5 3 3 3 1 1 2 1 1 1 3 4 5 6 6 7 8 7 7 9 8 7 8 10 13 12 12 12 13 12 12 11 8 8 8 8 8 8
4 2 3 4 4 4 3 2 1 1 2 2 2 3 2 1 2 4 5 6 6 7 8 8 9 9 10 9 10 11 12 12 12 13 13 13 12 12 8 7 7 7 7 8
4 4 4 5 3 1 2 2 3 4 4 4 5 3 3 2 1 2 4 6 6 7 8 8 8 10 11 11 12 12 12 12 12 14 14 12 11 11 10 8 8 8 8 10
7 8 7 6 5 4 3 4 4 4 4 5 5 3 3 3 1 2 4 5 5 6 8 9 10 10 12 12 13 13 13 12 12 13 12 12 11 10 10 10 10 14 15 18
Wind_Direction
22 54 38 35 60 175 166 111 88 86 96 77 89 93 76 48 48 34 21 11 7 355 343 354 356 353 350 351 352 353 349 349 348 353 345 339 334 328 326 321 332 329 331 331
44 45 332 291 7 66 111 114 107 93 85 108 107 94 77 49 51 38 17 0 354 345 347 354 354 354 354 351 349 352 348 347 351 357 337 330 323 322 325 329 328 331 333 330
92 348 336 47 31 31 31 115 186 175 91 92 119 100 95 39 338 25 20 350 336 340 338 348 350 356 355 350 346 342 342 347 353 358 339 334 330 328 331 333 333 335 334 336
74 12 34 42 37 22 324 338 259 168 143 167 185 183 200 244 357 2 356 349 337 332 338 348 351 356 355 344 337 335 339 346 356 355 346 342 343 341 341 336 333 330 330 328
54 16 25 42 2 351 294 328 187 134 137 117 139 205 228 312 354 338 329 331 330 328 344 347 348 355 347 340 345 346 344 347 357 354 344 340 339 340 336 333 331 327 325 328
39 17 51 352 313 339 305 23 67 66 87 138 200 237 251 313 301 300 308 321 324 328 342 343 343 351 344 348 354 344 340 342 349 351 341 342 340 339 334 333 332 327 327 328
360 2 358 10 1 356 10 25 23 6 349 257 177 179 241 210 246 270 293 308 316 327 333 336 342 349 348 355 356 346 339 339 350 352 341 339 341 337 332 330 326 317 322 325
22 346 359 4 49 351 27 64 71 324 292 301 347 343 267 215 253 287 295 298 315 320 327 332 347 350 348 355 354 347 342 341 347 348 339 337 343 339 334 326 315 309 316 322
18 321 338 23 25 70 46 58 82 338 314 314 320 348 338 289 294 306 301 306 320 329 330 337 356 355 351 353 353 342 339 337 339 341 335 334 337 337 331 321 313 314 321 320
135 311 3 332 22 25 73 86 33 23 349 318 307 296 298 313 305 314 314 320 334 333 339 351 3 355 352 348 350 339 336 334 334 337 334 332 330 330 328 324 321 322 324 324
90 97 319 29 43 353 30 51 73 109 139 268 304 300 201 263 312 316 312 328 345 343 346 353 1 353 346 346 353 342 338 337 338 337 334 333 331 332 331 328 325 324 321 320
90 117 279 56 36 83 111 110 115 128 262 193 252 278 168 328 314 307 312 338 346 342 337 344 357 347 341 343 351 344 339 338 337 334 333 333 332 332 332 329 326 323 320 320
120 99 13 2 337 3 60 78 120 128 149 219 212 261 252 311 332 338 334 336 328 331 333 343 353 341 336 336 341 339 337 336 336 334 333 332 332 332 330 328 327 326 325 323
89 115 156 223 270 279 284 201 151 150 184 230 244 286 325 338 334 335 338 311 318 339 332 343 347 339 334 334 337 336 334 334 335 334 332 331 331 330 327 327 329 329 328 327
80 126 257 258 3 296 249 227 190 187 193 221 279 299 300 311 321 320 325 331 338 341 337 345 344 341 337 337 339 336 335 333 334 333 332 331 329 327 327 329 333 332 332 331
57 104 308 276 318 308 254 205 188 215 215 259 285 286 276 301 309 318 331 338 340 337 339 347 342 340 338 340 339 334 330 329 332 330 328 328 329 329 330 331 334 334 335 335
75 97 47 285 327 320 284 212 190 229 231 233 262 269 302 314 325 323 337 351 334 336 341 340 337 336 332 337 335 330 326 327 330 329 326 326 327 329 331 334 336 334 334 336
120 103 96 303 338 306 286 220 157 259 266 239 259 290 302 294 301 331 47 356 336 334 334 327 330 328 323 327 329 325 322 324 328 328 326 326 328 328 330 335 337 333 332 333
85 129 88 354 277 287 269 230 191 233 279 226 224 283 299 310 305 18 39 354 327 322 315 312 315 311 316 321 326 325 322 325 327 329 328 327 328 329 332 338 335 335 334 335
55 69 104 109 297 284 235 191 136 128 286 238 244 284 303 333 332 345 358 332 326 327 316 311 314 314 316 318 322 323 322 322 325 328 327 325 326 327 331 336 330 332 334 338
137 56 134 155 238 268 223 158 133 86 271 227 224 271 274 250 309 334 338 333 331 323 317 321 319 315 313 313 319 319 318 316 319 321 322 322 323 321 332 333 326 327 329 333
188 172 179 162 243 269 173 152 187 211 217 227 202 226 259 321 331 326 328 334 333 326 325 322 318 316 312 311 316 315 311 312 314 316 315 316 316 315 321 324 321 324 325 328
214 196 193 200 219 220 194 195 184 159 185 152 183 190 97 353 324 328 334 331 328 323 323 320 315 312 311 311 312 307 304 308 311 312 309 306 306 307 305 315 315 318 321 323
245 203 230 256 234 210 220 220 146 110 126 134 125 119 116 160 304 336 338 333 328 323 329 328 322 316 313 314 309 303 301 305 308 307 306 304 302 305 302 303 302 305 306 308
215 189 209 247 243 223 250 187 146 124 112 105 84 91 107 119 15 332 326 327 321 321 330 327 320 313 309 311 309 307 306 306 303 304 305 304 303 300 293 290 292 295 295 296
199 186 177 218 192 161 159 139 130 129 132 125 120 110 72 67 28 331 324 321 314 324 325 322 317 311 310 312 309 307 306 304 301 302 304 304 305 304 304 302 295 291 299 313